Indian Springs, NV

6:11 PM PST on February 06, 2016 (GMT -0800)
Indian Springs Air Force Auxiliary

Weather History for KINS - November, 2012

Change the Weather History Date:

Friday, November 9, 2012

  Actual Average (KDRA) Record (KDRA)
Temperature  
Mean Temperature 49 °F 53 °F  
Max Temperature 61 °F 66 °F 78 °F (2014)
Min Temperature 37 °F 40 °F 32 °F (2010)
Degree Days  
Heating Degree Days 16    
Cooling Degree Days 0    
Moisture  
Dew Point 28 °F    
Average Humidity 39    
Maximum Humidity 81    
Minimum Humidity 15    
Precipitation  
Precipitation 0.01 in 0.01 in 0.42 in (1982)
Month to date precipitation 0.11  
Year to date precipitation 5.06  
Sea Level Pressure  
Sea Level Pressure 29.67 in    
Wind  
Wind Speed 16 mph (West)    
Max Wind Speed 31 mph    
Max Gust Speed 40 mph    
Visibility 10 miles    
Events Rain    
T = Trace of Precipitation, MM = Missing Value Source: NWS Daily Summary

Daily Weather History Graph

Daily Weather History Graph

Search for Another Location

Airport or City:

Trip Planner

Search our weather history database for the weather conditions in past years. The results will help you decide how hot, cold, wet, or windy it might be!

Date:

Astronomy

Nov. 09, 2012 Rise Set
Actual Time 6:14 AM PST 4:37 PM PST
Civil Twilight 5:47 AM PST 5:05 PM PST
Nautical Twilight 5:16 AM PST 5:35 PM PST
Astronomical Twilight 4:46 AM PST 6:06 PM PST
Moon 1:25 AM PST (11/9) 1:47 PM PST (11/9)
Length of Visible Light 11h 17m
Length of Day
10h 23m
Waning Crescent, 22% of the Moon is Illuminated
Nov 9
Waning Crescent
Nov 13
New
Nov 20
First Quarter
Nov 28
Full
Dec 6
Last Quarter

Hourly Weather History & Observations

Time (PST) Temp. Windchill Dew Point Humidity Pressure Visibility Wind Dir Wind Speed Gust Speed Precip Events Conditions
12:58 AM 61.5 °F - 39.0 °F 43% 29.64 in 10.0 mi Variable 6.9 mph - N/A   Overcast
1:58 AM 60.6 °F - 36.5 °F 41% 29.65 in 10.0 mi West 10.4 mph - N/A   Overcast
2:07 AM 60.8 °F - 35.6 °F 39% 29.64 in 10.0 mi WSW 18.4 mph 24.2 mph N/A   Overcast
2:10 AM 59.0 °F - 35.6 °F 42% 29.63 in 10.0 mi West 16.1 mph 24.2 mph N/A   Overcast
2:11 AM 59.0 °F - 35.6 °F 42% 29.63 in 10.0 mi WNW 15.0 mph 24.2 mph N/A   Overcast
2:40 AM 59.0 °F - 35.6 °F 42% 29.64 in 10.0 mi WSW 13.8 mph 24.2 mph N/A   Overcast
2:52 AM 59.0 °F - 33.8 °F 39% 29.63 in 10.0 mi West 20.7 mph 25.3 mph N/A   Overcast
2:55 AM 59.0 °F - 33.8 °F 39% 29.63 in 10.0 mi WNW 20.7 mph 29.9 mph N/A   Overcast
2:58 AM 59.7 °F - 34.2 °F 38% 29.63 in 10.0 mi WNW 18.4 mph 29.9 mph N/A   Overcast
3:58 AM 59.0 °F - 34.9 °F 40% 29.62 in 10.0 mi Variable 3.5 mph - N/A   Overcast
4:58 AM 59.5 °F - 32.7 °F 36% 29.62 in 10.0 mi North 11.5 mph 17.3 mph N/A   Mostly Cloudy
5:12 AM 59.0 °F - 32.0 °F 36% 29.62 in 10.0 mi SW 17.3 mph 31.1 mph N/A   Overcast
5:22 AM 59.0 °F - 32.0 °F 36% 29.61 in 10.0 mi WSW 24.2 mph 27.6 mph N/A   Overcast
5:23 AM 59.0 °F - 32.0 °F 36% 29.61 in 10.0 mi SW 21.9 mph 27.6 mph N/A   Overcast
5:54 AM 57.2 °F - 32.0 °F 38% 29.62 in 10.0 mi WSW 16.1 mph 25.3 mph N/A   Overcast
5:56 AM 57.2 °F - 32.0 °F 38% 29.62 in 10.0 mi West 19.6 mph 25.3 mph N/A   Overcast
5:57 AM 57.2 °F - 32.0 °F 38% 29.62 in 10.0 mi West 21.9 mph 25.3 mph N/A   Overcast
5:58 AM 57.4 °F - 32.7 °F 39% 29.62 in 10.0 mi West 20.7 mph 25.3 mph N/A   Overcast
6:33 AM 55.4 °F - 32.0 °F 41% 29.63 in 10.0 mi WSW 21.9 mph 35.7 mph N/A   Overcast
6:35 AM 55.4 °F - 32.0 °F 41% 29.64 in 10.0 mi SSW 23.0 mph 29.9 mph N/A   Overcast
6:58 AM 54.3 °F - 34.3 °F 47% 29.65 in 10.0 mi West 17.3 mph 34.5 mph N/A   Mostly Cloudy
6:59 AM 53.6 °F - 32.0 °F 44% 29.65 in 10.0 mi WNW 17.3 mph 34.5 mph N/A   Overcast
7:08 AM 55.4 °F - 32.0 °F 41% 29.65 in 10.0 mi WNW 15.0 mph 29.9 mph N/A   Overcast
7:09 AM 55.4 °F - 32.0 °F 41% 29.65 in 10.0 mi NW 13.8 mph 29.9 mph N/A   Overcast
7:15 AM 53.6 °F - 32.0 °F 44% 29.64 in 10.0 mi West 20.7 mph 29.9 mph N/A   Overcast
7:19 AM 53.6 °F - 32.0 °F 44% 29.65 in 10.0 mi West 18.4 mph 29.9 mph N/A   Overcast
7:23 AM 53.6 °F - 32.0 °F 44% 29.65 in 10.0 mi WSW 11.5 mph 29.9 mph N/A   Overcast
7:30 AM 53.6 °F - 32.0 °F 44% 29.65 in 10.0 mi WSW 27.6 mph 34.5 mph N/A   Mostly Cloudy
7:35 AM 55.4 °F - 32.0 °F 41% 29.64 in 10.0 mi West 21.9 mph 34.5 mph N/A   Mostly Cloudy
7:36 AM 55.4 °F - 32.0 °F 41% 29.64 in 10.0 mi West 20.7 mph 34.5 mph N/A   Mostly Cloudy
7:37 AM 55.4 °F - 32.0 °F 41% 29.64 in 10.0 mi NW 17.3 mph 34.5 mph N/A   Mostly Cloudy
7:38 AM 55.4 °F - 32.0 °F 41% 29.65 in 10.0 mi North 16.1 mph 34.5 mph N/A   Mostly Cloudy
7:39 AM 53.6 °F - 32.0 °F 44% 29.65 in 10.0 mi North 12.7 mph 34.5 mph N/A   Mostly Cloudy
7:58 AM 55.6 °F - 29.3 °F 37% 29.65 in 10.0 mi WSW 26.5 mph 36.8 mph N/A   Mostly Cloudy
8:49 AM 53.6 °F - 26.6 °F 35% 29.68 in 10.0 mi SW 29.9 mph 40.3 mph N/A   Mostly Cloudy
8:53 AM 53.6 °F - 26.6 °F 35% 29.67 in 9.0 mi WSW 21.9 mph 40.3 mph N/A   Mostly Cloudy
8:54 AM 53.6 °F - 24.8 °F 33% 29.67 in 9.0 mi West 21.9 mph 40.3 mph N/A   Overcast
8:58 AM 53.8 °F - 24.4 °F 32% 29.68 in 9.0 mi WSW 25.3 mph 40.3 mph N/A   Mostly Cloudy
8:59 AM 55.4 °F - 24.8 °F 31% 29.69 in 9.0 mi SW 28.8 mph 40.3 mph N/A   Mostly Cloudy
9:03 AM 55.4 °F - 23.0 °F 29% 29.67 in 10.0 mi SW 23.0 mph 36.8 mph N/A   Mostly Cloudy
9:20 AM 55.4 °F - 17.6 °F 23% 29.68 in 10.0 mi South 11.5 mph 32.2 mph N/A   Partly Cloudy
9:27 AM 55.4 °F - 17.6 °F 23% 29.68 in 10.0 mi SW 13.8 mph 25.3 mph N/A   Clear
9:28 AM 55.4 °F - 19.4 °F 25% 29.69 in 10.0 mi WSW 18.4 mph 25.3 mph N/A   Clear
9:43 AM 57.2 °F - 14.0 °F 18% 29.67 in 10.0 mi West 25.3 mph 36.8 mph N/A   Clear
9:58 AM 56.7 °F - 12.0 °F 17% 29.66 in 10.0 mi WSW 20.7 mph 35.7 mph N/A   Clear
10:58 AM 57.2 °F - 9.5 °F 15% 29.68 in 10.0 mi WSW 23.0 mph 34.5 mph N/A   Clear
11:58 AM 55.6 °F - 15.8 °F 21% 29.68 in 10.0 mi WSW 19.6 mph 33.4 mph N/A   Clear
12:58 PM 55.9 °F - 12.7 °F 18% 29.66 in 10.0 mi SW 31.1 mph 40.3 mph N/A   Clear
1:58 PM 55.9 °F - 11.7 °F 17% 29.66 in 10.0 mi SW 24.2 mph 32.2 mph N/A   Clear
2:58 PM 55.4 °F - 10.0 °F 16% 29.65 in 10.0 mi SW 20.7 mph 27.6 mph N/A   Clear
3:58 PM 54.1 °F - 7.5 °F 15% 29.65 in 10.0 mi SW 15.0 mph - N/A   Clear
4:58 PM 51.1 °F - 11.1 °F 20% 29.67 in 10.0 mi SW 17.3 mph - N/A   Clear
5:58 PM 49.1 °F - 12.9 °F 23% 29.69 in 10.0 mi SW 17.3 mph - N/A   Clear
6:58 PM 46.4 °F 40.7 °F 21.2 °F 37% 29.74 in 10.0 mi WNW 12.7 mph - N/A   Clear
7:58 PM 40.6 °F 32.7 °F 29.8 °F 65% 29.76 in 10.0 mi WNW 15.0 mph - N/A   Mostly Cloudy
8:51 PM 39.2 °F 31.6 °F 32.0 °F 75% 29.79 in 10.0 mi WNW 12.7 mph - N/A   Light Drizzle
8:58 PM 39.7 °F 31.9 °F 30.4 °F 69% 29.79 in 10.0 mi WNW 13.8 mph - 0.00 in   Light Drizzle
9:03 PM 39.2 °F 29.8 °F 32.0 °F 75% 29.79 in 10.0 mi WNW 18.4 mph - N/A Rain Light Rain
9:23 PM 37.4 °F 28.5 °F 32.0 °F 81% 29.80 in 10.0 mi NW 15.0 mph - N/A   Overcast
9:58 PM 38.5 °F 33.4 °F 31.3 °F 75% 29.82 in 10.0 mi West 6.9 mph - 0.01 in   Overcast
10:58 PM 39.7 °F 34.3 °F 28.8 °F 65% 29.79 in 10.0 mi SSW 8.1 mph - N/A   Scattered Clouds
11:58 PM 38.1 °F 31.2 °F 30.7 °F 75% 29.80 in 10.0 mi WSW 10.4 mph - N/A   Partly Cloudy